Elbella — 9HA2358 — position and weather

sailwx.info

Track history (hours):
 
Tides and Currents Weather Stations Pressure Air Temp Water Temp Dewpoint Dewpoint Depression Visibility Wind Speed Wind Dir Waves Ship Positions

Elbella

Last reported at 2014-Oct-28 20:32 UTC. Time now 2014-Nov-01 01:03 UTC.
Position N 36°08' E 026°22'.

Length 176 m; draft 7.5 m.

Type: Ship (hazmat cat A). MMSI: 248422000.

Date/timePositionNaut miles runAvg speedWind from/ knotsBaromVisibWave heightAir tempDewpointWater temp
2014-Oct-28 20:32N 36°08' E 026°22'1818.3
2014-Oct-28 19:33N 36°05' E 025°60'1818.4
2014-Oct-28 18:33N 36°03' E 025°37'1818.2
2014-Oct-28 17:33N 36°01' E 025°15'1817.9
2014-Oct-28 16:33N 35°58' E 024°53'1717.5
2014-Oct-28 15:33N 35°56' E 024°32'1717.2
2014-Oct-28 14:33N 35°54' E 024°11'  
2014-Oct-20 12:09N 34°29' E 033°35'813.0
2014-Oct-20 11:33N 34°32' E 033°26'1312.8
2014-Oct-20 10:33N 34°36' E 033°12'9 9.2
2014-Oct-20 09:33N 34°39' E 033°01'0 0.0
2014-Oct-20 08:31N 34°39' E 033°01'0 0.0
2014-Oct-20 07:31N 34°39' E 033°01'0 0.0
2014-Oct-20 06:31N 34°39' E 033°01'0 0.0
2014-Oct-20 05:31N 34°39' E 033°01'0 0.0
2014-Oct-20 04:31N 34°39' E 033°01'1 1.3
2014-Oct-20 03:33N 34°39' E 033°02'1 1.4
2014-Oct-20 02:31N 34°40' E 033°04'0 0.0
2014-Oct-20 01:31N 34°40' E 033°04'0 0.0
2014-Oct-20 00:31N 34°40' E 033°04'0 0.0
2014-Oct-19 23:31N 34°40' E 033°04'0 0.1
2014-Oct-19 22:31N 34°40' E 033°04'0 0.1
2014-Oct-19 21:31N 34°40' E 033°04'0 0.1
2014-Oct-19 20:31N 34°40' E 033°04'0 0.1
2014-Oct-19 19:31N 34°40' E 033°04'0 0.0
2014-Oct-19 18:31N 34°40' E 033°04'0 0.1
2014-Oct-19 17:31N 34°40' E 033°04'0 0.0
2014-Oct-19 16:31N 34°40' E 033°04'0 0.0
2014-Oct-19 15:31N 34°40' E 033°04'0 0.0
2014-Oct-19 14:28N 34°40' E 033°04'0 0.0
2014-Oct-19 13:33N 34°40' E 033°04'6 6.2
2014-Oct-19 12:33N 34°39' E 033°11'1212.0
2014-Oct-19 11:33N 34°38' E 033°26'  
Track history (hours):
 
Tides and Currents Weather Stations Pressure Air Temp Water Temp Dewpoint Dewpoint Depression Visibility Wind Speed Wind Dir Waves Ship Positions

Elbella

Last reported at 2014-Oct-28 20:32 UTC. Time now 2014-Nov-01 01:03 UTC.
Position N 36°08' E 026°22'.

Length 176 m; draft 7.5 m.

Type: Ship (hazmat cat A). MMSI: 248422000.

Date/timePositionNaut miles runAvg speedWind from/ knotsBaromVisibWave heightAir tempDewpointWater temp
2014-Oct-28 20:32N 36°08' E 026°22'1818.3
2014-Oct-28 19:33N 36°05' E 025°60'1818.4
2014-Oct-28 18:33N 36°03' E 025°37'1818.2
2014-Oct-28 17:33N 36°01' E 025°15'1817.9
2014-Oct-28 16:33N 35°58' E 024°53'1717.5
2014-Oct-28 15:33N 35°56' E 024°32'1717.2
2014-Oct-28 14:33N 35°54' E 024°11'  
2014-Oct-20 12:09N 34°29' E 033°35'813.0
2014-Oct-20 11:33N 34°32' E 033°26'1312.8
2014-Oct-20 10:33N 34°36' E 033°12'9 9.2
2014-Oct-20 09:33N 34°39' E 033°01'0 0.0
2014-Oct-20 08:31N 34°39' E 033°01'0 0.0
2014-Oct-20 07:31N 34°39' E 033°01'0 0.0
2014-Oct-20 06:31N 34°39' E 033°01'0 0.0
2014-Oct-20 05:31N 34°39' E 033°01'0 0.0
2014-Oct-20 04:31N 34°39' E 033°01'1 1.3
2014-Oct-20 03:33N 34°39' E 033°02'1 1.4
2014-Oct-20 02:31N 34°40' E 033°04'0 0.0
2014-Oct-20 01:31N 34°40' E 033°04'0 0.0
2014-Oct-20 00:31N 34°40' E 033°04'0 0.0
2014-Oct-19 23:31N 34°40' E 033°04'0 0.1
2014-Oct-19 22:31N 34°40' E 033°04'0 0.1
2014-Oct-19 21:31N 34°40' E 033°04'0 0.1
2014-Oct-19 20:31N 34°40' E 033°04'0 0.1
2014-Oct-19 19:31N 34°40' E 033°04'0 0.0
2014-Oct-19 18:31N 34°40' E 033°04'0 0.1
2014-Oct-19 17:31N 34°40' E 033°04'0 0.0
2014-Oct-19 16:31N 34°40' E 033°04'0 0.0
2014-Oct-19 15:31N 34°40' E 033°04'0 0.0
2014-Oct-19 14:28N 34°40' E 033°04'0 0.0
2014-Oct-19 13:33N 34°40' E 033°04'6 6.2
2014-Oct-19 12:33N 34°39' E 033°11'1212.0
2014-Oct-19 11:33N 34°38' E 033°26'  

Dump ship's entire track history